Location: Clayton (historical)
(34.0300°N, 118.0259°W)
Time: 10:31:03
(UTC+00:00)

Hubble Space Telescope - Pass Details

Date: 28 January 2021
Orbit: 536 x 539 km, 28.5° (Epoch: 28 February)

Event Time Altitude Azimuth Distance (km) Brightness Sun altitude
Rises 02:20:46 0° 261° (W) 2,673 6.4 -13.2°
Reaches altitude 10° 02:23:42 10° 240° (WSW) 1,781 4.7 -13.8°
Maximum altitude 02:26:17 16° 200° (SSW) 1,428 3.3 -14.3°
Drops below altitude 10° 02:28:53 10° 161° (SSE) 1,779 3.3 -14.8°
Enters shadow 02:31:03 - 144° (SE) 2,414 3.9 -15.3°
